Location: Arbon
(43.0005°N, 0.7472°E)
Time: 12:04:51
(UTC+00:00)

Cosmos 2292 Rocket - Pass Details

Date: 22 April 2026
Orbit: 367 x 1220 km, 83.0° (Epoch: 16 May)

Event Time Altitude Azimuth Distance (km) Brightness Sun altitude
Rises 20:39:05 0° 348° (NNW) 2,944 7.8 -18.7°
Reaches altitude 10° 20:41:36 10° 344° (NNW) 1,890 6.8 -19.1°
Maximum altitude 20:45:33 54° 268° (W) 600 3.7 -19.6°
Enters shadow 20:46:51 32° 207° (SSW) 810 4.0 -19.8°
